Weather History for Avoca, PA

Change the Weather History Date:

Wednesday, April 10, 2013

  Actual Average Record
Temperature  
Mean Temperature 65 °F 47 °F  
Max Temperature 76 °F 57 °F 82 °F (1922)
Min Temperature 53 °F 36 °F 20 °F (1985)
Degree Days  
Heating Degree Days 0 19  
Month to date heating degree days 181 204  
Since 1 July heating degree days 5331 5681  
Cooling Degree Days 0 0  
Month to date cooling degree days 4 0  
Year to date cooling degree days 4 0  
Growing Degree Days 15 (Base 50)    
Moisture  
Dew Point 53 °F    
Average Humidity 69    
Maximum Humidity 93    
Minimum Humidity 44    
Precipitation  
Precipitation 0.50 in 0.11 in 1.59 in (1993)
Month to date precipitation 0.50 1.08  
Year to date precipitation 5.45 8.03  
Sea Level Pressure  
Sea Level Pressure 29.86 in    
Wind  
Wind Speed 6 mph (West)    
Max Wind Speed 37 mph    
Max Gust Speed 51 mph    
Visibility 8 miles    
Events Rain , Thunderstorm    
T = Trace of Precipitation, MM = Missing Value Source: NWS Daily Summary

Daily Weather History Graph

Daily Weather History Graph

Search for Another Location

Airport:

Trip Planner

Search our weather history database for the weather conditions in past years. The results will help you decide how hot, cold, wet, or windy it might be!

Date:

Astronomy

Apr. 10, 2013 Rise Set
Actual Time 6:30 AM EDT 7:37 PM EDT
Civil Twilight 6:02 AM EDT 8:06 PM EDT
Nautical Twilight 5:28 AM EDT 8:40 PM EDT
Astronomical Twilight 4:53 AM EDT 9:15 PM EDT
Moon 6:25 AM EDT (4/10) 8:12 PM EDT (4/10)
Length of Visible Light 14h 03m
Length of Day
13h 07m
New Moon, 0% of the Moon is Illuminated
Apr 10
New Moon
Apr 18
First Quarter
Apr 25
Full
May 2
Last Quarter
May 9
New

Hourly Weather History & Observations

Time (EDT) Temp. Dew Point Humidity Pressure Visibility Wind Dir Wind Speed Gust Speed Precip Events Conditions
12:54 AM 70.0 °F 46.0 °F 42% 29.83 in 10.0 mi SW 6.9 mph - N/A   Overcast
1:54 AM 66.9 °F 48.0 °F 51% 29.84 in 10.0 mi NW 18.4 mph 24.2 mph 0.00 in Rain Light Rain
2:06 AM 66.2 °F 51.8 °F 60% 29.88 in 10.0 mi NNW 25.3 mph 31.1 mph 0.00 in Rain Light Rain
2:54 AM 60.1 °F 48.9 °F 67% 29.88 in 10.0 mi NE 11.5 mph - 0.00 in   Overcast
3:54 AM 60.1 °F 48.0 °F 64% 29.87 in 10.0 mi Calm Calm - N/A   Overcast
4:54 AM 57.9 °F 48.9 °F 72% 29.89 in 10.0 mi Calm Calm - N/A   Overcast
5:54 AM 57.0 °F 48.0 °F 72% 29.88 in 10.0 mi SW 4.6 mph - N/A   Overcast
6:54 AM 55.9 °F 48.0 °F 75% 29.92 in 10.0 mi West 3.5 mph - N/A   Overcast
7:54 AM 60.1 °F 48.9 °F 67% 29.93 in 10.0 mi North 4.6 mph - N/A   Scattered Clouds
8:54 AM 61.0 °F 48.9 °F 64% 29.91 in 10.0 mi Calm Calm - N/A   Clear
9:54 AM 63.0 °F 50.0 °F 63% 29.92 in 10.0 mi North 4.6 mph - N/A   Mostly Cloudy
10:54 AM 66.0 °F 51.1 °F 59% 29.93 in 10.0 mi NW 5.8 mph - N/A   Clear
11:54 AM 70.0 °F 52.0 °F 53% 29.91 in 10.0 mi WNW 11.5 mph - N/A   Mostly Cloudy
12:54 PM 70.0 °F 52.0 °F 53% 29.90 in 10.0 mi WNW 6.9 mph - N/A   Scattered Clouds
1:54 PM 71.1 °F 52.0 °F 51% 29.88 in 10.0 mi Variable 6.9 mph - N/A   Clear
2:54 PM 75.2 °F 53.6 °F 47% 29.86 in 10.0 mi WNW 9.2 mph - N/A   Clear
3:54 PM 75.9 °F 53.1 °F 45% 29.80 in 10.0 mi West 9.2 mph - N/A   Partly Cloudy
4:54 PM 73.9 °F 57.9 °F 57% 29.78 in 5.0 mi West 9.2 mph - 0.01 in Rain Light Rain
5:13 PM 69.8 °F 57.2 °F 64% 29.91 in 2.0 mi WNW 29.9 mph 50.6 mph 0.00 in Rain Light Rain
5:16 PM 64.4 °F 55.4 °F 73% 29.91 in 1.5 mi West 12.7 mph 50.6 mph 0.05 in Rain , Thunderstorm Heavy Thunderstorms and Rain
5:24 PM 60.8 °F 55.4 °F 82% 29.90 in 3.0 mi South 3.5 mph 24.2 mph 0.18 in Rain , Thunderstorm Thunderstorms and Rain
5:54 PM 60.1 °F 57.0 °F 90% 29.82 in 6.0 mi SE 5.8 mph - 0.25 in Rain , Thunderstorm Light Thunderstorms and Rain
6:54 PM 61.0 °F 55.9 °F 83% 29.79 in 10.0 mi ENE 5.8 mph - 0.01 in Thunderstorm Thunderstorm
7:54 PM 59.0 °F 55.9 °F 90% 29.79 in 10.0 mi ESE 5.8 mph - N/A Thunderstorm Thunderstorm
8:02 PM 60.8 °F 55.4 °F 82% 29.80 in 10.0 mi Variable 4.6 mph - N/A   Scattered Clouds
8:54 PM 60.1 °F 57.0 °F 90% 29.86 in 7.0 mi Calm Calm - 0.01 in Rain Light Rain
9:54 PM 60.1 °F 57.0 °F 90% 29.88 in 4.0 mi WSW 4.6 mph - 0.10 in Rain Rain
10:46 PM 59.0 °F 57.2 °F 94% 29.83 in 1.8 mi Calm Calm - 0.08 in Rain Light Rain
10:54 PM 59.0 °F 57.9 °F 96% 29.83 in 3.0 mi West 4.6 mph - 0.08 in Rain Light Rain
11:35 PM 59.0 °F 57.2 °F 94% 29.83 in 2.0 mi SSW 4.6 mph - 0.00 in   Mostly Cloudy
11:40 PM 59.0 °F 57.2 °F 94% 29.84 in 1.5 mi SW 4.6 mph - 0.00 in   Mostly Cloudy
11:48 PM 59.0 °F 57.2 °F 94% 29.85 in 3.0 mi SW 5.8 mph - 0.00 in   Mostly Cloudy
11:54 PM 59.0 °F 57.9 °F 96% 29.83 in 3.0 mi SW 4.6 mph - 0.00 in   Mostly Cloudy